Tracking 19847 objects as of 18-Sep-2019
HD Live streaming from Space Station
objects crossing your sky now

EXPLORER 30

Track EXPLORER 30 now!
10-day predictions
EXPLORER 30 is classified as:


NORAD ID: 1738
Int'l Code: 1965-093A
Perigee: 675.8 km
Apogee: 854.2 km
Inclination: 59.7 °
Period: 100.0 minutes
Semi major axis: 7135 km
RCS: 0.3725 m2 (medium)
Launch date: November 19, 1965
Source: United States (US)
Launch site: WALLOPS ISLAND (WLPIS)
aabbcc
Your satellite tracking list
Your tracking list is empty




NASA's NSSDC Master Catalog

Two Line Element Set (TLE):
1  1738U 65093A   19260.65021172 -.00000097  00000-0  16473-4 0  9996
2  1738  59.7102 334.7511 0124986 304.1797  54.7442 14.40198221822134
Source of the keplerian elements: AFSPC